Regional Weather Roundup
Issued by NWS Charleston, SC

Current Version | Previous Version | Graphics & Text | Print | Product List | Glossary On
Versions: 1 2 3 4 5 6 7 8 9 10 11 12 13 14 15 16 17 18 19 20 21 22 23 24 25 26 27 28 29 30 31 32 33 34 35 36 37 38 39 40 41 42 43 44 45 46 47 48 49 50
000
ASUS42 KCHS 162212
RWRCHS

Regional Weather Roundup
National Weather Service Charleston SC
500 PM EST TUE JAN 16 2018

NOTE: "fair" indicates few or no clouds below 12,000 feet with no
significant weather and/or obstructions to visibility.

Not all stations are quality controlled. Use data with caution,
especially dewpoint observations.

SCZ027-030-031-034>040-042>050-162300-
...Southeast South Carolina...

CITY           SKY/WX    TMP DP  RH WIND       PRES   REMARKS
N Charleston   MOCLDY    52  33  48 SE7       30.36S
Waterfront Prk NOT AVBL
Mount Pleasant FAIR      48  36  61 SE5       30.36F
Johns Island   FAIR      48  34  57 SE5       30.36F
Pinopolis        N/A     48  37  66 N6        30.28S
Moncks Corner  FAIR      50  25  37 N3        30.35S
Summerville    FAIR      55  30  38 CALM      30.36S
Beaufort MCAS  MOCLDY    53  38  56 S3        30.36S
Beaufort Arpt  FAIR      50  32  50 CALM      30.36S
Hilton Head Is CLEAR     48  36  61 E3        30.37S
Walterboro     FAIR      54  30  40 CALM      30.36S
Allendale      FAIR      55  30  38 CALM      30.34S

...Southern Midlands and Pee Dee...

CITY           SKY/WX    TMP DP  RH WIND       PRES   REMARKS
Georgetown     FAIR      45  32  61 E6        30.38S
Kingstree      FAIR      50  27  40 CALM      30.36F
Orangeburg     FAIR      53  26  35 CALM      30.34F
Barnwell         N/A     54  34  47 CALM      30.35S
Aiken          FAIR      50  30  46 CALM      30.36F
Manning        FAIR      50  12  22 MISG      30.36F
Columbia       MOCLDY    53  27  36 E3        30.33F
Sumter         MOCLDY    52  24  34 CALM      30.32F
Florence       FAIR      51  23  33 S5        30.37S
Myrtle Beach   FAIR      45  30  55 S5        30.38S
N Myrtle Beach FAIR      45  31  58 SW5       30.37R

$$

GAZ063-065-086>088-099>101-113>116-118-119-134>141-150-162300-
...Southeast Georgia...

CITY           SKY/WX    TMP DP  RH WIND       PRES   REMARKS
Savannah Arpt  CLOUDY    54  31  41 E6        30.36R
Hunter AAF     FAIR      53  31  43 SE7       30.33S
Fort Stewart   FAIR      57  35  42 E7        30.32S
Statesboro     FAIR      56  28  33 CALM      30.34S
Sylvania       FAIR      56  34  43 CALM      30.35S
Claxton        FAIR      57  38  47 CALM      30.34F

...CSRA, Central and far Southeast Georgia...

CITY           SKY/WX    TMP DP  RH WIND       PRES   REMARKS
Thomson        FAIR      53  29  40 NW5       30.38R
Augusta-Bush   FAIR      54  31  41 S6        30.33F
Augusta-Daniel FAIR      55  30  38 CALM      30.33F
Swainsboro     FAIR      54  34  47 CALM      30.34F
Vidalia        FAIR      57  34  41 CALM      30.34F
Eastman        FAIR      56  17  21 CALM      30.36F
Hazlehurst     FAIR      59  22  24 CALM      30.33F
Alma           FAIR      61  31  32 W6        30.33S
Waycross       FAIR      63  24  23 NW3       30.33S
Jesup          NOT AVBL
Baxley         FAIR      59  32  36 NW3       30.33S
Brunswick      FAIR      52  36  54 E8        30.36R
Saint Simons   FAIR      51  38  60 E7        30.35S

$$

SCZ027-028-034-036>038-045-046-048>050-GAZ119-141-162300-
...Lake and Supplemental Coastal Observations...

STATION/POSITION TIME  TEMP    WIND        PRES    WAVE   SWELL
                       AIR SEA DIR/SP/G            HT/PER HT/PER/DIR
                 (UTC) (F)     (DEG/KT/KT) (MB)    (FT/S) (FT/S/D)
Winyah Bay       NOT AVBL
Lake Murray      2120   51      CALM  /  1 1026.8
ACE Basin NERRS  2045   50        CALM     1028.0
Fort Pulaski     2142   46 47   90/  6/  7 1028.3F
Sapelo Island    2100   54      80/  5     1028.0

$$

ANZ835-935-AMZ111-154-330-350-352-354-370-450-454-472-162300-
...C-MAN and Buoy Observations...

STATION/POSITION TIME  TEMP    WIND        PRES    WAVE   SWELL
                       AIR SEA DIR/SP/G            HT/PER HT/PER/DIR
                 (UTC) (F)     (DEG/KT/KT) (MB)    (FT/S) (FT/S/D)
Buoy 41004       2150   54 70   40/  4/  8 1027.9F   5/11   5/ 90/11
Buoy 41008       2150   51 52   30/ 10/ 10 1027.4F   4/ 9   3/100/ 9
Folly Beach CMAN 2100   48     120/  4/  5 1029.0F
Capers Nearshore 2108   47 48  110/  2/  4 1028.3R
Fripp Nearshore  2108   49 46   40/  4/  6 1027.5F


STATION/POSITION TIME  TEMP    WIND        PRES    WAVE   SWELL
                       AIR SEA DIR/SP/G            HT/PER HT/PER/DIR
                 (UTC) (F)     (DEG/KT/KT) (MB)    (FT/S) (FT/S/D)
5E St. Marys GA  2130      51                N/A     4/ 9   2/ 90/11
Frying Pan Buoy  2150   49 60  330/  6/  8 1028.0S   4/11   3/110/11
Buoy 41025       2200   49     350/ 12/ 14 1027.5
Cape Lookout NC  2100           20/  5/  7 1027.9R
Buoy 41002       2150   67 71   90/  8/ 10 1024.8R   9/10   8/ 50/10
Buoy 41010       NOT AVBL
St Augustine FL  2200   50 51  350/ 10/ 11 1027.4S


$$




USA.gov is the U.S. government's official web portal to all federal, state and local government web resources and services.